Regional Weather Roundup
Issued by NWS Grand Forks, ND

Home | Current Version | Previous Version | Graphics & Text | Print | Product List | Glossary On
Versions: 1 2 3 4 5 6 7 8 9 10 11 12 13 14 15 16 17 18 19 20 21 22 23 24 25 26 27 28 29 30 31 32 33 34 35 36 37 38 39 40 41 42 43 44 45 46 47 48 49 50
429
ASUS43 KFGF 272031
RWRFGF
PRAIRIE TO PINES  WEATHER ROUNDUP
NATIONAL WEATHER SERVICE EASTERN NORTH DAKOTA/GRAND FORKS ND
300 PM CDT THU JUL 27 2017

 **SATELLITE DATA USED TO AUGMENT SKY COVER AT AUTOMATED STATIONS**
 *****  WEATHER ACROSS EASTERN NORTH DAKOTA  *****

CITY           SKY/WX    TMP DP  RH WIND       PRES   REMARKS
GRAND FORKS    PTSUNNY   84  56  38 SW5       30.09F
GRAND FRKS AFB FAIR      83  56  39 S6        30.10F
DEVILS LAKE    FAIR      80  56  43 SE7       30.12F
FARGO          FAIR      85  61  44 VRB3      30.10F
WAHPETON ARPT  FAIR      81  55  41 CALM      30.11S
$$

 ***** WEATHER ACROSS CENTRAL AND WESTERN NORTH DAKOTA  *****

CITY           SKY/WX    TMP DP  RH WIND       PRES   REMARKS
BISMARCK       FAIR      78  64  61 S3        30.09F
MINOT          FAIR      80  58  46 SE10      30.08F
JAMESTOWN      FAIR      81  57  43 MISG      30.12F
MINOT AFB      FAIR      79  57  46 SE9       30.06F
GARRISON         N/A     74  62  66 SE8       30.07F
WILLISTON      PTSUNNY   68  62  81 NE14      30.03S
DICKINSON      FAIR      77  58  51 E21G28    30.06F
HETTINGER      PTSUNNY   85  52  32 S21       30.07F
$$

 *****  OTHER AIRPORT OBSERVATIONS IN OUR AREA  *****

CITY           SKY/WX    TMP DP  RH WIND       PRES   REMARKS
WALHALLA       NOT AVBL
GRAFTON AIRPOR FAIR      82  59  44 NW3       30.10F
VALLEY CITY AR FAIR      81  61  50 SE10      30.13F
CANDO          NOT AVBL
CAVALIER APRT  FAIR      82  63  51 CALM      30.09S
GWINNER        CLEAR     81  59  47 E8        30.11F
SHEYENNE NWR     N/A     83  58  41 SE7       29.95S
ROLLA            N/A     77  57  50 SE9       30.12F
 ***** THE ABOVE OBSERVATIONS ARE NON NWS ARE NOT QUALITY
       CONTROLLED AND MAY MIS-REPORT RAIN FOR SNOW...
$$

  *****  WEATHER ACROSS NORTHERN MINNESOTA  *****

CITY           SKY/WX    TMP DP  RH WIND       PRES   REMARKS
FLAG ISLAND    FAIR      82  63  51 CALM      30.08F
WARROAD        RAIN      73  68  83 E7        30.09S
ROSEAU         FAIR      82  63  51 W5        30.08F
HALLOCK        FAIR      82  57  42 NW6       30.08F
THF RVR FALLS  FAIR      81  59  47 W8        30.12F
BAUDETTE       FAIR      83  59  44 N6        30.09F
WASKISH        CLOUDY    77  64  65 NW3       30.10S
CROOKSTON      FAIR      81  57  44 CALM      30.10F
STEPHEN NDAWN    N/A     82  61  47 NW5         N/A
GREENBUSH NDAW   N/A     82  61  47 W3          N/A
$$
  *****  WEATHER ACROSS CENTRAL AND WEST MINNESOTA  *****

CITY           SKY/WX    TMP DP  RH WIND       PRES   REMARKS
FOSSTON        FAIR      81  61  50 W3        30.11F
BEMIDJI        FAIR      79  55  43 NW12      30.11F
PARK RAPIDS    PTSUNNY   81  58  45 N8        30.12S
ELBOW LAKE     FAIR      80  58  48 NE6       30.12F HAZE
WADENA         FAIR      81  57  44 NE5       30.11F
DETROIT LAKES  FAIR      79  59  50 N3        30.13F
MOORHEAD       FAIR      81  59  47 CALM      30.10F
FERGUS FALLS   FAIR      81  59  47 NW5       30.09F
MORRIS MN      FAIR      84  57  39 N3        30.10S
STAPLES        FAIR      82  54  36 CALM      30.10F
$$
  *****  WEATHER ELSEWHERE ACROSS MINNESOTA  *****

CITY           SKY/WX    TMP DP  RH WIND       PRES   REMARKS
DULUTH         PTSUNNY   73  62  68 SE7       30.11S
INTRNTL FALLS  FAIR      80  53  39 N3        30.08F
ELY            FAIR      75  54  46 CALM      30.08S
CLOQUET        FAIR      79  55  44 N3        30.09F
WHEATON        FAIR      81  55  41 CALM      30.11F
BRAINERD       FAIR      81  57  43 W6        30.11S
HIBBING        FAIR      79  53  40 NW6       30.10F
ALEXANDRIA     FAIR      80  57  45 NW3       30.14S
SAINT CLOUD    FAIR      82  58  43 N6        30.09S
MINNEAPOLIS    FAIR      84  57  39 N9        30.06F
$$

  *****  WEATHER ACROSS SOUTH DAKOTA  *****

CITY           SKY/WX    TMP DP  RH WIND       PRES   REMARKS
SIOUX FALLS    FAIR      84  63  49 VRB7      30.09F
BROOKINGS      FAIR      79  62  56 NE7       30.12F
WATERTOWN      PTSUNNY   79  59  50 N3        30.11F
HURON          FAIR      82  59  45 VRB5      30.10F
SISSETON         N/A     83  60  45 VRB6      30.10F
ABERDEEN       FAIR      82  59  45 VRB7      30.10F
MITCHELL       FAIR      83  61  47 E6        30.10F
PIERRE         FAIR      87  56  34 E15       30.07F
MOBRIDGE       FAIR      85  62  46 S9        30.07F
RAPID CITY     FAIR      73  53  49 S18G29    30.14F
$$

  *****  SOME WEATHER IN NEARBY STATES *****

CITY           SKY/WX    TMP DP  RH WIND       PRES   REMARKS
GLASGOW MT     FAIR      88  52  29 SE10      29.95F
GREAT FALLS MT FAIR      87  38  17 VRB7      30.02F
CHEYENNE WY    FAIR      82  55  39 S15       30.23F
SCOTTSBLUFF NE FAIR      84  66  54 SE16G24   30.11F
OMAHA NE       FAIR      83  62  49 NE12G21   30.03F
DES MOINES IA  FAIR      86  65  49 N14       29.99S
DAVENPORT IA   FAIR      82  70  66 N13       29.97F
CHICAGO IL     PTSUNNY   79  66  64 NE15      29.94S
EAU CLAIRE WI  FAIR      84  57  39 NE9       30.04F
LA CROSSE WI   PTSUNNY   86  64  47 W9        30.01F
$$

  *****  SOME NATIONAL WEATHER *****

CITY           SKY/WX    TMP DP  RH WIND       PRES   REMARKS
LA GUARDIA NY  CLOUDY    75  70  84 S12       29.92F
RALEIGH NC     CLOUDY    90  69  50 W9        29.95F HX  94
ATLANTA GA     FAIR      90  71  53 SW6       29.99F HX  96
NEW ORLEANS LA FAIR      95  70  44 N7        30.02F HX 101
OKLAHOMA CITY  PTSUNNY   94  64  37 S7        29.94F HX  95
ALBUQUERQUE NM PTSUNNY   82  55  39 VRB5      30.20F
SALT LAKE CITY FAIR      86  56  35 NW8       30.14F
LOS ANGELES CA PTSUNNY   74  65  73 W12       29.94F
BOISE ID       FAIR      89  52  28 CALM      30.05F
SEATTLE WA     CLOUDY    62  52  69 SW8       30.18S
$$

*** WEATHER ACROSS MANITOBA...SASKATCHEWAN AND ONTARIO ***
                ***ONTARIO***

CITY           SKY/WX    TMP DP  RH WIND       PRES   REMARKS
GERALDTON      MOSUNNY   73  50  43 NW8       30.09F
THUNDER BAY    MOSUNNY   77  59  53 SE10      30.07S
SIOUX LOOKOUT  PTSUNNY   77  54  44 VRB7      30.10S
TORONTO        PTSUNNY   77  68  73 SE9       29.88F
BIG TROUT LK   CLOUDY    75  52  43 S5        30.05F
PICKLE LAKE    PTSUNNY   77  48  36 N3        30.08F
DRYDEN         MOSUNNY   81  55  41 VRB5      30.09F
KENORA         PTSUNNY   81  52  36 N5        30.10F
$$
                *** MANITOBA***

CITY           SKY/WX    TMP DP  RH WIND       PRES   REMARKS
BRANDON        MOSUNNY   82  59  44 S9        30.09F
DAUPHIN        SUNNY     82  64  54 E8        30.07S
ISLAND LAKE    MOSUNNY   79  63  57 S5        30.03
PILOT MOUND      N/A     79  59  50 SE6         N/A
THE PAS        MOSUNNY   86  55  35 SW7       29.99F
THOMPSON       PTSUNNY   86  57  37 S7        29.94F
WINNIPEG       MOSUNNY   82  61  47 NW6       30.08F
LYNN LAKE      SUNNY     84  52  32 SW12      29.92S
CHURCHILL      MOSUNNY   64  50  59 E16G22    29.95F
GILLAM         PTSUNNY   81  63  54 NW7       29.93F
$$
                ***SASKATCHEWAN***

CITY           SKY/WX    TMP DP  RH WIND       PRES   REMARKS
ESTEVAN        PTSUNNY   82  59  44 CALM      30.04F
KINDERSLEY     MOSUNNY   91  48  22 SE15G29   29.92F
LLOYDMINSTER   MOSUNNY   82  64  54 E13       29.89F
PRINCE ALBERT  PTSUNNY   82  64  54 SE9       29.99S
REGINA         MOSUNNY   88  54  31 SE12G18   30.01F
YORKTON        SUNNY     82  50  32 S9G18     30.07S
N. BATTLEFORD  SUNNY     88  57  35 SE17      29.93F
LA RONGE       MOSUNNY   82  55  39 SE10      29.94F
SASKATOON      MOSUNNY   90  59  35 SE14G21   29.97F
SWIFT CURRENT  SUNNY     88  52  29 SE10G23   29.98F
$$
NOTE: THESE ARE AUTOMATED STATIONS WITH LIMITED QUALITY CONTROL
      "FAIR" INDICATES FEW OR NO CLOUDS BELOW 12,000 FEET WITH NO
      SIGNIFICANT WEATHER AND/OR OBSTRUCTIONS TO VISIBILITY.
      SKY/WX - SKY CONDITION AND SIGNIFICANT WEATHER.
      TMP - AIR TEMPERATURE.    DP   - DEWPOINT TEMPERATURE.
      RH  - RELATIVE HUMIDITY.  PRES - PRESSURE.
      HX  - HEAT INDEX.         WCI  - WIND CHILL INDEX.
$




USA.gov is the U.S. government's official web portal to all federal, state and local government web resources and services.